Regional Weather Roundup
Issued by NWS

Home | Current Version | Previous Version | Graphics & Text | Print | Product List | Glossary On
Versions: 1 2 3 4 5 6 7 8 9 10 11 12 13 14 15 16 17 18 19 20 21 22 23 24 25 26 27 28 29 30 31 32 33 34 35 36 37 38 39 40 41 42 43 44 45 46 47 48 49 50
000
ASUS43 KOAX 160902
RWRNE

WEATHER ROUNDUP FOR NEBRASKA
NATIONAL WEATHER SERVICE OMAHA NE
400 AM CDT WED APR 16 2014

NOTES: SATELLITE DATA IS BEING USED TO AUGMENT CLOUD COVER ABOVE
       12000 FEET.
       "FAIR" INDICATES FEW OR NO CLOUDS BELOW 12,000 FEET WITH NO
       SIGNIFICANT WEATHER AND/OR OBSTRUCTIONS TO VISIBILITY.

  * THESE STATIONS DO NOT REPORT WEATHER SUCH AS RAIN...SNOW OR FOG.

NEZ001>004-019>022-054>056-161000-
NEBRASKA PANHANDLE

CITY           SKY/WX    TMP DP  RH WIND       PRES   REMARKS
SCOTTSBLUFF    CLOUDY    44  35  70 NW24G35   29.67R
ALLIANCE       CLOUDY    45  33  63 NW17      29.60R
CHADRON        LGT RAIN  43  39  86 N8        29.64R
KIMBALL        CLOUDY    45  27  48 NW31G43   29.69R
SIDNEY         MOCLDY    50  29  44 W35G41    29.64F
$$

NEZ057>060-069>072-079>082-161000-
SOUTHWEST NEBRASKA

CITY           SKY/WX    TMP DP  RH WIND       PRES   REMARKS
NORTH PLATTE   MOCLDY    47  27  45 W8        29.61R
IMPERIAL       MOCLDY    40  28  62 W13       29.61R WCI  32
LEXINGTON      CLOUDY    47  25  41 S17       29.58F
MCCOOK         CLOUDY    49  22  34 SW15      29.58F
OGALLALA       MOCLDY    54  29  39 NW16      29.60R
$$

NEZ005>010-023>029-035>040-094-161000-
NORTH CENTRAL NEBRASKA

CITY           SKY/WX    TMP DP  RH WIND       PRES   REMARKS
VALENTINE      CLOUDY    53  30  41 NW13G20   29.51R
AINSWORTH      CLOUDY    57  33  39 SW20G28   29.51S
BROKEN BOW     CLOUDY    46  27  47 S9        29.58S
O`NEILL        CLOUDY    51  25  36 S16       29.55F
ORD            MOCLDY    47  24  40 S23       29.57F
THEDFORD       CLOUDY    57  34  42 W13       29.55F
$$

NEZ041-046>049-061>064-073>077-083>087-161000-
SOUTH CENTRAL NEBRASKA

CITY           SKY/WX    TMP DP  RH WIND       PRES   REMARKS
GRAND ISLAND   MOCLDY    48  23  37 S23G30    29.64F
AURORA         PTCLDY    46  23  39 S18G28    29.66F
HASTINGS       PTCLDY    47  22  37 S16G22    29.65F
HEBRON         CLEAR     47  18  30 S21G28    29.72F
HOLDREGE       CLOUDY    46  24  43 S16       29.61F
KEARNEY *      MOCLDY    45  25  45 S21       29.62F
YORK           MOCLDY    45  23  42 S20G26    29.68F
$$

NEZ011>018-030>034-042>045-161000-
NORTHEAST NEBRASKA

CITY           SKY/WX    TMP DP  RH WIND       PRES   REMARKS
NORFOLK        CLOUDY    49  22  34 S24G35    29.61F
ALBION         CLOUDY    46  25  43 S17       29.62S
BLAIR          MOCLDY    45  29  53 S22G30    29.74F
COLUMBUS *     CLOUDY    48  21  34 S22G29    29.66F
FREMONT        CLOUDY    48  24  38 S21G29    29.72F
TEKAMAH        CLOUDY    47  29  49 S21       29.73F
$$

NEZ050>053-065>068-078-088>093-161000-
SOUTHEAST NEBRASKA

CITY           SKY/WX    TMP DP  RH WIND       PRES   REMARKS
LINCOLN        MOCLDY    48  24  39 S20       29.74F
OMAHA EPPLEY   CLOUDY    45  29  53 S24G32    29.78F
BEATRICE       PTCLDY    48  24  38 S20G26    29.77S
FALLS CITY     CLEAR     46  29  51 S18G26    29.86F
NEBRASKA CITY  PTCLDY    45  29  53 S20G26    29.81F
PLATTSMOUTH    PTCLDY    45  28  50 S20G25    29.79S
$$

NEZ044-045-051>053-067-161000-
OMAHA AREA

CITY           SKY/WX    TMP DP  RH WIND       PRES   REMARKS
OMAHA EPPLEY   CLOUDY    45  29  53 S24G32    29.78F
BLAIR          MOCLDY    45  29  53 S22G30    29.74F
FREMONT        CLOUDY    48  24  38 S21G29    29.72F
MILLARD        MOCLDY    45  29  53 SE12G18   29.78F
OFFUTT AFB     MOCLDY    43  32  65 SE13      29.80F
PLATTSMOUTH    PTCLDY    45  28  50 S20G25    29.79S
WAHOO          FAIR      46  24  42 S14       29.73F
$$



USA.gov is the U.S. government's official web portal to all federal, state and local government web resources and services.